NORTH MICHIGAN Halfway between North Manitou and Washington Islands (45002)

Conditions for Saturday

Daily
Weekly
Monthly
Marine Data Graph

Marine & Boating Location Search

Enter a coastal zip code for marine weather.

General Information

Location: 45.344 North -86.411 West
Buoy Type: 3-meter discus buoy
Buoy Hull: 3D46
Payload: AMPS payload
Owned by: NDBC
Windspeed: Measured by obtained from anemometer
Sea Surface: Measured by Intake

Weather and Wave Data

Time Temp Humidity Wind Dominant Wave Wind Wave Pressure
  Air
(°F)
Water
(°F)
  Dir Speed
(kts)
Speed
(mph)
Period
(sec)
Height
(ft)
Range
(ft)
Period
(sec)
Height
(ft)
Range
(ft)
Atmo.
(in)
Tend.
(in)
20:50 64 60 75 SSW 13.6 15.7 5 2.30 exactly 2.3 5 1.64 0.82 - 2.46 29.98 +0.01
21:50 64 60 70 SSW 15.6 17.9 5 2.62 exactly 2.6 5 3.28 2.46 - 4.10 29.98 -
22:50 63 60 76 South 13.6 15.7 5 2.62 exactly 2.6 5 3.28 2.46 - 4.10 29.99 -
23:50 64 60 71 SSW 13.6 15.7 5 2.62 exactly 2.6 5 3.28 2.46 - 4.10 29.99 -
00:50 64 60 72 South 15.6 17.9 5 2.62 exactly 2.6 5 3.28 2.46 - 4.10 29.99 +0.01
01:50 63 60 83 SSW 15.6 17.9 5 2.62 exactly 2.6 5 3.28 2.46 - 4.10 29.99 -
02:50 63 60 89 SSW 13.6 15.7 5 2.95 exactly 3.0 5 3.28 2.46 - 4.10 30.00 +0.01
03:50 63 60 90 SSW 11.7 13.4 5 2.62 exactly 2.6 5 3.28 2.46 - 4.10 30.00 +0.01
04:50 62 60 93 South 11.7 13.4 5 2.62 exactly 2.6 5 3.28 2.46 - 4.10 29.99 -
05:50 62 60 92 SSW 13.6 15.7 5 2.30 exactly 2.3 5 1.64 0.82 - 2.46 30.00 -
06:50 62 60 91 SSW 11.7 13.4 5 1.97 exactly 2.0 5 1.64 0.82 - 2.46 30.00 -
07:50 62 60 94 SSW 11.7 13.4 4 1.97 exactly 2.0 4 1.64 0.82 - 2.46 30.01 +0.01
08:50 63 60 91 SSW 13.6 15.7 4 2.30 exactly 2.3 4 1.64 0.82 - 2.46 30.01 +0.01
09:50 62 60 94 South 11.7 13.4 4 1.97 exactly 2.0 4 1.64 0.82 - 2.46 30.01 -
10:50 63 60 91 South 13.6 15.7 4 1.97 exactly 2.0 4 1.64 0.82 - 2.46 30.01 -
11:50 63 61 91 South 11.7 13.4 4 1.97 exactly 2.0 4 1.64 0.82 - 2.46 30.01 -
12:50 63 61 91 South 13.6 15.7 4 1.97 exactly 2.0 4 1.64 0.82 - 2.46 30.01 -
14:50 64 61 88 South 11.7 13.4 4 1.64 exactly 1.6 4 1.64 0.82 - 2.46 29.99 -0.02
15:50 64 61 88 South 11.7 13.4 4 1.64 exactly 1.6 4 1.64 0.82 - 2.46 29.98 -0.03
16:50 64 61 87 SSW 9.7 11.2 4 1.64 exactly 1.6 4 1.64 0.82 - 2.46 29.98 -0.02
17:50 65 61 83 SSW 9.7 11.2 4 1.64 exactly 1.6 4 1.64 0.82 - 2.46 29.96 -0.03
18:50 65 61 83 SSW 11.7 13.4 4 1.64 exactly 1.6 4 1.64 0.82 - 2.46 29.95 -0.04
19:50 65 61 84 SSW 9.7 11.2 4 1.64 exactly 1.6 4 1.64 0.82 - 2.46 29.95 -0.03
20:50 64 61 89 SSW 11.7 13.4 4 1.64 exactly 1.6 4 1.64 0.82 - 2.46 29.94 -0.01
21:50 64 61 90 SSW 9.7 11.2 4 1.31 exactly 1.3 4 1.64 0.82 - 2.46 29.96 +0.01
22:50 64 61 90 South 9.7 11.2 4 1.31 exactly 1.3 4 1.64 0.82 - 2.46 29.96 +0.02
23:50 63 61 94 South 11.7 13.4 4 1.31 exactly 1.3 4 1.64 0.82 - 2.46 29.96 +0.02
00:50 64 61 92 South 13.6 15.7 4 1.64 exactly 1.6 4 1.64 0.82 - 2.46 29.95 -0.01
01:50 63 61 96 SSW 11.7 13.4 4 1.64 exactly 1.6 4 1.64 0.82 - 2.46 29.94 -0.02
02:50 63 61 98 SSW 11.7 13.4 3 1.64 exactly 1.6 3 1.64 0.82 - 2.46 29.93 -0.03
03:50 63 61 97 SSW 11.7 13.4 4 1.31 exactly 1.3 4 1.64 0.82 - 2.46 29.92 -0.03

Detailed Wave Spectra

Time Water Depth Wave Height Spectral Peak Period Average Wave Period Sampling Interval Wave Record
20:00 574 ft 2.43 ft 4.3 sec 3.6 sec 0.6 sec 2400 sec
21:00 574 ft 2.30 ft 4.5 sec 3.6 sec 0.6 sec 2400 sec
22:00 574 ft 2.53 ft 4.5 sec 3.8 sec 0.6 sec 2400 sec
23:00 574 ft 2.72 ft 4.8 sec 3.9 sec 0.6 sec 2400 sec
00:00 574 ft 2.79 ft 4.5 sec 3.8 sec 0.6 sec 2400 sec
01:00 574 ft 2.62 ft 4.5 sec 3.8 sec 0.6 sec 2400 sec
02:00 574 ft 2.69 ft 4.8 sec 3.7 sec 0.6 sec 2400 sec
03:00 574 ft 2.82 ft 4.8 sec 3.8 sec 0.6 sec 2400 sec
04:00 574 ft 2.49 ft 5.0 sec 3.8 sec 0.6 sec 2400 sec
05:00 574 ft 2.59 ft 4.8 sec 3.8 sec 0.6 sec 2400 sec
06:00 574 ft 2.26 ft 4.8 sec 3.7 sec 0.6 sec 2400 sec
07:00 574 ft 2.10 ft 4.5 sec 3.5 sec 0.6 sec 2400 sec
08:00 574 ft 2.03 ft 4.3 sec 3.6 sec 0.6 sec 2400 sec
09:00 574 ft 2.17 ft 4.2 sec 3.5 sec 0.6 sec 2400 sec
10:00 574 ft 2.07 ft 4.2 sec 3.4 sec 0.6 sec 2400 sec
11:00 574 ft 2.07 ft 4.3 sec 3.5 sec 0.6 sec 2400 sec
12:00 574 ft 1.97 ft 4.0 sec 3.4 sec 0.6 sec 2400 sec
13:00 574 ft 1.84 ft 4.0 sec 3.4 sec 0.6 sec 2400 sec
15:00 574 ft 1.74 ft 4.0 sec 3.4 sec 0.6 sec 2400 sec
16:00 574 ft 1.74 ft 4.0 sec 3.3 sec 0.6 sec 2400 sec
17:00 574 ft 1.74 ft 4.0 sec 3.4 sec 0.6 sec 2400 sec
18:00 574 ft 1.77 ft 3.8 sec 3.4 sec 0.6 sec 2400 sec
19:00 574 ft 1.67 ft 3.8 sec 3.4 sec 0.6 sec 2400 sec
20:00 574 ft 1.71 ft 4.0 sec 3.4 sec 0.6 sec 2400 sec
21:00 574 ft 1.61 ft 4.0 sec 3.4 sec 0.6 sec 2400 sec
22:00 574 ft 1.44 ft 4.0 sec 3.3 sec 0.6 sec 2400 sec
23:00 574 ft 1.48 ft 4.0 sec 3.3 sec 0.6 sec 2400 sec
00:00 574 ft 1.31 ft 3.6 sec 3.2 sec 0.6 sec 2400 sec
01:00 574 ft 1.51 ft 4.0 sec 3.1 sec 0.6 sec 2400 sec
02:00 574 ft 1.64 ft 4.0 sec 3.4 sec 0.6 sec 2400 sec
03:00 574 ft 1.61 ft 3.4 sec 3.2 sec 0.6 sec 2400 sec